Location: Hawaiian Village Mobile Home Park
(32.8359°N, 116.9792°W)
Time: 10:00:06
(UTC+00:00)

Cosmos 2208 Rocket - Pass Details

Date: 01 August 2021
Orbit: 755 x 805 km, 74.0° (Epoch: 15 September)

Event Time Altitude Azimuth Distance (km) Brightness Sun altitude
Rises 11:58:27 0° 342° (NNW) 3,229 7.4 -12.7°
Reaches altitude 10° 12:00:50 10° 342° (NNW) 2,294 6.6 -12.3°
Maximum altitude 12:06:02 86° 255° (WSW) 762 3.9 -11.4°
Drops below altitude 10° 12:11:11 10° 166° (SSE) 2,270 6.3 -10.4°
Sets 12:13:32 0° 166° (SSE) 3,192 7.1 -10.0°
